sat.trackr.live / text

‹ back to catalog

STARLINK-36253

NORAD 68028 · 2026-040P

PAYLOAD ACTIVE UNKNOWN

§ Identity

Operator
Country
US
Launch date
2026-03-01
Launch site
AFWTR
Launch vehicle
Mass (kg)
RCS (m²)

Purposes: comms

External: N2YO · Heavens-Above · Gunter

§ Orbital elements

Epoch: 2026-05-25T03:10:13.047744Z

Period
93.90 min
Inclination
97.2842°
Eccentricity
0.0002055
Mean motion
15.33466347 rev/d
Perigee alt
464.1 km
Apogee alt
466.9 km
Semi-major
6,843.6 km
B*
6.4360e-4
RAAN
93.1644°
Arg perigee
93.3296°
Mean anomaly
266.8182°
Rev number
1,311

§ Raw data

STARLINK-362531 68028U 26040P   26145.13209546  .00020775  00000+0  64360-3 0  99962 68028  97.2842  93.1644 0002055  93.3296 266.8182 15.33466347 13110

JSON: /api/v1/satellites/68028 · /tle

For live sub-satellite position, see the globe view (requires WebGL).

§ Visibility from observer

Set your observer location to see the next 7 days of passes ≥ 10°. The values pass through the URL so the page stays shareable.

No JS? Fill the form by hand. The geolocation button needs JavaScript.